Multibeam Report for SKQ201507T


Ship Name: Sikuliaq
Chief Scientist: None
Source Organization: Rolling Deck to Repository
Start Date: 2015-06-24
End Date: 2015-07-07


View ISO Metadata

Visit the full NCEI Bathymetry Viewer


Multibeam Bathymetry

Cruise Details

Project: Transit
Instrument: Kongsberg EM302 and EM710

Data Quality

Number of Files: 84
Number of Records: 762244
BATHYMETRY DATA Quantity Percentage
Number of Beams 317124384 100%
Number of Good Beams 281215304 88.68%
Number of Zero Beams 0 0%
Number of Flagged Beams 35909080 11.32%
AMPLITUDE DATA Quantity Percentage
Number of Beams 317124384 100%
Number of Good Beams 281215304 88.68%
Number of Zero Beams 0 0%
Number of Flagged Beams 35909080 11.32%
SIDESCAN DATA Quantity Percentage
Number of Pixels 780537856 100%
Number of Good Pixels 491262897 62.94%
Number of Zero Pixels 0 0%
Number of Flagged Pixels 289274959 37.06%

Navigation Totals

Total Time: 133.579 hours
Total Track Length: 2705.3988 km
Average Speed: 20.253 km/hr (10.9357 knots)

Cruise Bounds

Northern Extent: 60.085648
Southern Extent: 53.90141
Western Extent: -166.525
Eastern Extent: -149.37233

Limits

Minimum Sonar Depth 0.3931 Maximum Sonar Depth 8.781
Minimum Altitude 8.0997 Maximum Altitude 320.1395
Minimum Depth 8.3139 Maximum Depth 396.1069
Minimum Amplitude 0 Maximum Amplitude 38.7
Minimum Sidescan 0 Maximum Sidescan 327.66

File Information

Full Resolution Bathymetry as collected (raw): 80

Files File Size Description
0000_20150705_024012_Sikuliaq.all.mb58.gz 209.76MB Kongsberg multibeam vendor format
0001_20150705_044012_Sikuliaq.all.mb58.gz 209.89MB Kongsberg multibeam vendor format
0002_20150705_064011_Sikuliaq.all.mb58.gz 283.59MB Kongsberg multibeam vendor format
0003_20150705_084011_Sikuliaq.all.mb58.gz 263.12MB Kongsberg multibeam vendor format
0004_20150705_104012_Sikuliaq.all.mb58.gz 299.92MB Kongsberg multibeam vendor format
0005_20150705_124012_Sikuliaq.all.mb58.gz 346.73MB Kongsberg multibeam vendor format
0006_20150705_144011_Sikuliaq.all.mb58.gz 269.45MB Kongsberg multibeam vendor format
0007_20150705_163603_Sikuliaq.all.mb58.gz 292.81MB Kongsberg multibeam vendor format
0008_20150705_183603_Sikuliaq.all.mb58.gz 230.06MB Kongsberg multibeam vendor format
0009_20150705_203603_Sikuliaq.all.mb58.gz 214.30MB Kongsberg multibeam vendor format
0010_20150705_223603_Sikuliaq.all.mb58.gz 215.99MB Kongsberg multibeam vendor format
0011_20150706_003604_Sikuliaq.all.mb58.gz 234.72MB Kongsberg multibeam vendor format
0012_20150706_023603_Sikuliaq.all.mb58.gz 204.80MB Kongsberg multibeam vendor format
0013_20150706_043604_Sikuliaq.all.mb58.gz 188.74MB Kongsberg multibeam vendor format
0014_20150706_063603_Sikuliaq.all.mb58.gz 207.25MB Kongsberg multibeam vendor format
0015_20150706_083604_Sikuliaq.all.mb58.gz 241.10MB Kongsberg multibeam vendor format
0016_20150706_103604_Sikuliaq.all.mb58.gz 284.61MB Kongsberg multibeam vendor format
0017_20150706_123604_Sikuliaq.all.mb58.gz 264.54MB Kongsberg multibeam vendor format
0018_20150706_143604_Sikuliaq.all.mb58.gz 288.14MB Kongsberg multibeam vendor format
0019_20150706_163604_Sikuliaq.all.mb58.gz 319.13MB Kongsberg multibeam vendor format
0020_20150706_183604_Sikuliaq.all.mb58.gz 300.95MB Kongsberg multibeam vendor format
0021_20150706_203604_Sikuliaq.all.mb58.gz 299.58MB Kongsberg multibeam vendor format
0022_20150706_223605_Sikuliaq.all.mb58.gz 376.33MB Kongsberg multibeam vendor format
0023_20150707_003604_Sikuliaq.all.mb58.gz 489.22MB Kongsberg multibeam vendor format
0024_20150707_023604_Sikuliaq.all.mb58.gz 413.77MB Kongsberg multibeam vendor format
0025_20150707_043604_Sikuliaq.all.mb58.gz 482.65MB Kongsberg multibeam vendor format
0026_20150707_063604_Sikuliaq.all.mb58.gz 498.58MB Kongsberg multibeam vendor format
0027_20150707_083605_Sikuliaq.all.mb58.gz 343.69MB Kongsberg multibeam vendor format
0028_20150707_103604_Sikuliaq.all.mb58.gz 329.18MB Kongsberg multibeam vendor format
0029_20150707_123605_Sikuliaq.all.mb58.gz 363.15MB Kongsberg multibeam vendor format
0030_20150707_143605_Sikuliaq.all.mb58.gz 289.25MB Kongsberg multibeam vendor format
0031_20150707_163605_Sikuliaq.all.mb58.gz 339.67MB Kongsberg multibeam vendor format
0032_20150707_183605_Sikuliaq.all.mb58.gz 361.57MB Kongsberg multibeam vendor format
0033_20150707_203605_Sikuliaq.all.mb58.gz 169.39MB Kongsberg multibeam vendor format
0000_20150705_024133_Sikuliaq.all.mb58.gz 250.28MB Kongsberg multibeam vendor format
0001_20150705_041134_Sikuliaq.all.mb58.gz 241.69MB Kongsberg multibeam vendor format
0002_20150705_054133_Sikuliaq.all.mb58.gz 303.80MB Kongsberg multibeam vendor format
0003_20150705_071133_Sikuliaq.all.mb58.gz 309.67MB Kongsberg multibeam vendor format
0004_20150705_084133_Sikuliaq.all.mb58.gz 306.69MB Kongsberg multibeam vendor format
0005_20150705_101133_Sikuliaq.all.mb58.gz 310.37MB Kongsberg multibeam vendor format
0006_20150705_114133_Sikuliaq.all.mb58.gz 359.74MB Kongsberg multibeam vendor format
0007_20150705_131133_Sikuliaq.all.mb58.gz 362.10MB Kongsberg multibeam vendor format
0008_20150705_144133_Sikuliaq.all.mb58.gz 316.31MB Kongsberg multibeam vendor format
0009_20150705_161133_Sikuliaq.all.mb58.gz 26.02MB Kongsberg multibeam vendor format
0010_20150705_162231_Sikuliaq.all.mb58.gz 314.39MB Kongsberg multibeam vendor format
0011_20150705_175231_Sikuliaq.all.mb58.gz 308.73MB Kongsberg multibeam vendor format
0012_20150705_192230_Sikuliaq.all.mb58.gz 244.82MB Kongsberg multibeam vendor format
0013_20150705_205231_Sikuliaq.all.mb58.gz 268.54MB Kongsberg multibeam vendor format
0014_20150705_222231_Sikuliaq.all.mb58.gz 257.16MB Kongsberg multibeam vendor format
0015_20150705_235231_Sikuliaq.all.mb58.gz 255.57MB Kongsberg multibeam vendor format
0016_20150706_012230_Sikuliaq.all.mb58.gz 244.20MB Kongsberg multibeam vendor format
0017_20150706_025231_Sikuliaq.all.mb58.gz 231.66MB Kongsberg multibeam vendor format
0018_20150706_042231_Sikuliaq.all.mb58.gz 224.32MB Kongsberg multibeam vendor format
0019_20150706_055231_Sikuliaq.all.mb58.gz 239.66MB Kongsberg multibeam vendor format
0020_20150706_072230_Sikuliaq.all.mb58.gz 264.06MB Kongsberg multibeam vendor format
0021_20150706_085230_Sikuliaq.all.mb58.gz 289.39MB Kongsberg multibeam vendor format
0022_20150706_102231_Sikuliaq.all.mb58.gz 336.08MB Kongsberg multibeam vendor format
0023_20150706_115231_Sikuliaq.all.mb58.gz 302.10MB Kongsberg multibeam vendor format
0024_20150706_132231_Sikuliaq.all.mb58.gz 290.97MB Kongsberg multibeam vendor format
0025_20150706_145231_Sikuliaq.all.mb58.gz 333.04MB Kongsberg multibeam vendor format
0026_20150706_162231_Sikuliaq.all.mb58.gz 356.81MB Kongsberg multibeam vendor format
0027_20150706_175231_Sikuliaq.all.mb58.gz 348.41MB Kongsberg multibeam vendor format
0028_20150706_192231_Sikuliaq.all.mb58.gz 310.22MB Kongsberg multibeam vendor format
0029_20150706_205231_Sikuliaq.all.mb58.gz 323.24MB Kongsberg multibeam vendor format
0030_20150706_222230_Sikuliaq.all.mb58.gz 377.14MB Kongsberg multibeam vendor format
0031_20150706_235231_Sikuliaq.all.mb58.gz 478.72MB Kongsberg multibeam vendor format
0032_20150707_012230_Sikuliaq.all.mb58.gz 387.75MB Kongsberg multibeam vendor format
0033_20150707_025231_Sikuliaq.all.mb58.gz 397.92MB Kongsberg multibeam vendor format
0034_20150707_042230_Sikuliaq.all.mb58.gz 428.43MB Kongsberg multibeam vendor format
0035_20150707_055231_Sikuliaq.all.mb58.gz 519.30MB Kongsberg multibeam vendor format
0036_20150707_072231_Sikuliaq.all.mb58.gz 423.77MB Kongsberg multibeam vendor format
0037_20150707_085231_Sikuliaq.all.mb58.gz 363.16MB Kongsberg multibeam vendor format
0038_20150707_102231_Sikuliaq.all.mb58.gz 360.01MB Kongsberg multibeam vendor format
0039_20150707_115231_Sikuliaq.all.mb58.gz 355.35MB Kongsberg multibeam vendor format
0040_20150707_132231_Sikuliaq.all.mb58.gz 394.01MB Kongsberg multibeam vendor format
0041_20150707_145231_Sikuliaq.all.mb58.gz 314.19MB Kongsberg multibeam vendor format
0042_20150707_162231_Sikuliaq.all.mb58.gz 371.65MB Kongsberg multibeam vendor format
0043_20150707_175230_Sikuliaq.all.mb58.gz 367.40MB Kongsberg multibeam vendor format
0044_20150707_192231_Sikuliaq.all.mb58.gz 407.66MB Kongsberg multibeam vendor format
0045_20150707_205230_Sikuliaq.all.mb58.gz 94.19MB Kongsberg multibeam vendor format

Metadata Files: 3

Files File Size Description
SKQ201507T_Multibeam.xml NGDC created ISO metadata
em302_bag_info.tar.gz 3.8KB Additional cruise information
em710_bag_info.tar.gz 4.8KB Additional cruise information

Water Column Sonar Data

Water Column Sonar Data Available: WCSD Map Viewer